LAN3201 SKCG-SKBO

Flight info

Callsign LAN3201
Flight time 1h 0m
Altitude 33000
Route UGALU UL305 ATANA ATANA5T
Aircraft A320/M-SDE3FGHIRWY/LB1

Departure

Time 2026-05-07 18:02
Airport Rafael Nuñez International Airport (SKCG)

Arrival

Time 2026-05-07 19:03
Airport El Dorado International Airport (SKBO)
Time Latitude Longitude Altitude Speed Heading
2026-05-07 17:26 10.44610 -75.51544 51 ft 0 kts 272°
2026-05-07 17:53 10.44609 -75.51534 51 ft 4 kts 272°
2026-05-07 17:54 10.44608 -75.51507 51 ft 4 kts 275°
2026-05-07 17:54 10.44603 -75.51480 51 ft 4 kts 294°
2026-05-07 17:54 10.44588 -75.51460 50 ft 4 kts 343°
2026-05-07 17:54 10.44576 -75.51458 47 ft 1 kts
2026-05-07 17:55 10.44575 -75.51458 47 ft 0 kts
2026-05-07 17:57 10.44577 -75.51458 47 ft 2 kts
2026-05-07 17:57 10.44623 -75.51446 51 ft 12 kts 36°
2026-05-07 17:58 10.44645 -75.51364 48 ft 12 kts 77°
2026-05-07 17:58 10.44658 -75.51289 51 ft 10 kts 70°
2026-05-07 17:58 10.44710 -75.51266 49 ft 8 kts
2026-05-07 17:58 10.44764 -75.51266 51 ft 9 kts 359°
2026-05-07 17:59 10.44859 -75.51266 51 ft 17 kts
2026-05-07 17:59 10.44992 -75.51261 51 ft 21 kts
2026-05-07 17:59 10.45134 -75.51253 50 ft 19 kts
2026-05-07 17:59 10.45230 -75.51286 51 ft 13 kts 336°
2026-05-07 18:00 10.45257 -75.51239 48 ft 10 kts 135°
2026-05-07 18:00 10.45204 -75.51250 50 ft 7 kts 187°
2026-05-07 18:00 10.45192 -75.51250 50 ft 0 kts 181°
2026-05-07 18:01 10.45170 -75.51251 51 ft 24 kts 181°
2026-05-07 18:01 10.44742 -75.51269 51 ft 96 kts 182°
2026-05-07 18:02 10.42766 -75.51365 465 ft 164 kts 185°
2026-05-07 18:02 10.41606 -75.51353 1047 ft 170 kts 177°
2026-05-07 18:02 10.40406 -75.51264 1753 ft 172 kts 176°
2026-05-07 18:03 10.39184 -75.51169 2205 ft 185 kts 176°
2026-05-07 18:03 10.37824 -75.51071 2467 ft 206 kts 176°
2026-05-07 18:03 10.36366 -75.50866 2771 ft 221 kts 164°
2026-05-07 18:03 10.34806 -75.50441 3118 ft 245 kts 163°
2026-05-07 18:04 10.33665 -75.50115 3412 ft 260 kts 163°
2026-05-07 18:04 10.31305 -75.49434 4375 ft 269 kts 162°
2026-05-07 18:04 10.30085 -75.49083 4938 ft 271 kts 162°
2026-05-07 18:04 10.28255 -75.48555 5747 ft 274 kts 162°
2026-05-07 18:05 10.26408 -75.48025 6569 ft 278 kts 162°
2026-05-07 18:05 10.24534 -75.47488 7322 ft 281 kts 162°
2026-05-07 18:05 10.22640 -75.46947 8104 ft 285 kts 162°
2026-05-07 18:05 10.20717 -75.46398 8878 ft 288 kts 162°
2026-05-07 18:06 10.18776 -75.45844 9623 ft 291 kts 162°
2026-05-07 18:06 10.16812 -75.45283 10289 ft 296 kts 161°
2026-05-07 18:06 10.14756 -75.44691 10510 ft 319 kts 161°
2026-05-07 18:06 10.12556 -75.44059 10812 ft 335 kts 162°
2026-05-07 18:07 10.10288 -75.43413 11411 ft 341 kts 161°
2026-05-07 18:07 10.07992 -75.42762 12056 ft 344 kts 161°
2026-05-07 18:07 10.05674 -75.42105 12704 ft 348 kts 161°
2026-05-07 18:07 10.03335 -75.41443 13348 ft 350 kts 161°
2026-05-07 18:08 10.00978 -75.40776 13955 ft 353 kts 160°
2026-05-07 18:08 9.98600 -75.40100 14490 ft 357 kts 161°
2026-05-07 18:08 9.96196 -75.39413 14997 ft 361 kts 161°
2026-05-07 18:08 9.93739 -75.38709 15522 ft 365 kts 161°
2026-05-07 18:09 9.91280 -75.38004 16034 ft 368 kts 161°
2026-05-07 18:09 9.88806 -75.37298 16552 ft 372 kts 161°
2026-05-07 18:09 9.86299 -75.36581 17071 ft 375 kts 161°
2026-05-07 18:09 9.83777 -75.35864 17575 ft 379 kts 162°
2026-05-07 18:10 9.81219 -75.35142 18071 ft 383 kts 162°
2026-05-07 18:10 9.78647 -75.34417 18506 ft 386 kts 162°
2026-05-07 18:10 9.76041 -75.33679 18931 ft 390 kts 162°
2026-05-07 18:10 9.73424 -75.32935 19353 ft 393 kts 162°
2026-05-07 18:11 9.70774 -75.32182 19777 ft 396 kts 161°
2026-05-07 18:11 9.68108 -75.31423 20185 ft 400 kts 161°
2026-05-07 18:11 9.65425 -75.30658 20578 ft 403 kts 161°
2026-05-07 18:11 9.62707 -75.29885 20979 ft 406 kts 161°
2026-05-07 18:12 9.59979 -75.29109 21371 ft 410 kts 161°
2026-05-07 18:12 9.57220 -75.28322 21754 ft 413 kts 161°
2026-05-07 18:12 9.54450 -75.27533 22127 ft 416 kts 161°
2026-05-07 18:12 9.51645 -75.26735 22500 ft 420 kts 161°
2026-05-07 18:13 9.48822 -75.25932 22864 ft 423 kts 161°
2026-05-07 18:13 9.45984 -75.25124 23231 ft 426 kts 161°
2026-05-07 18:13 9.43115 -75.24311 23566 ft 429 kts 161°
2026-05-07 18:13 9.40230 -75.23495 23875 ft 432 kts 161°
2026-05-07 18:14 9.37329 -75.22678 24195 ft 434 kts 161°
2026-05-07 18:14 9.34418 -75.21854 24530 ft 435 kts 161°
2026-05-07 18:14 9.31495 -75.21024 24854 ft 437 kts 161°
2026-05-07 18:14 9.28561 -75.20193 25177 ft 439 kts 161°
2026-05-07 18:15 9.25614 -75.19358 25496 ft 441 kts 162°
2026-05-07 18:15 9.22621 -75.18509 25813 ft 442 kts 162°
2026-05-07 18:15 9.19650 -75.17667 26124 ft 444 kts 162°
2026-05-07 18:15 9.16666 -75.16820 26427 ft 446 kts 162°
2026-05-07 18:16 9.13672 -75.15968 26722 ft 448 kts 162°
2026-05-07 18:16 9.10659 -75.15110 27017 ft 450 kts 162°
2026-05-07 18:16 9.07645 -75.14252 27308 ft 452 kts 162°
2026-05-07 18:16 9.04605 -75.13392 27592 ft 454 kts 163°
2026-05-07 18:17 9.01564 -75.12535 27883 ft 456 kts 163°
2026-05-07 18:17 8.98496 -75.11675 28164 ft 458 kts 163°
2026-05-07 18:17 8.95428 -75.10813 28443 ft 460 kts 163°
2026-05-07 18:17 8.92341 -75.09940 28725 ft 462 kts 163°
2026-05-07 18:18 8.89244 -75.09060 29005 ft 463 kts 163°
2026-05-07 18:18 8.86132 -75.08179 29276 ft 465 kts 163°
2026-05-07 18:18 8.83009 -75.07295 29545 ft 467 kts 163°
2026-05-07 18:18 8.79876 -75.06406 29801 ft 469 kts 164°
2026-05-07 18:19 8.76729 -75.05515 30039 ft 470 kts 164°
2026-05-07 18:19 8.73573 -75.04622 30254 ft 472 kts 164°
2026-05-07 18:19 8.70405 -75.03729 30463 ft 473 kts 164°
2026-05-07 18:19 8.67229 -75.02834 30684 ft 474 kts 164°
2026-05-07 18:20 8.64040 -75.01932 30892 ft 476 kts 164°
2026-05-07 18:20 8.60859 -75.01032 31180 ft 475 kts 164°
2026-05-07 18:20 8.57679 -75.00133 31493 ft 474 kts 164°
2026-05-07 18:20 8.54466 -74.99223 31808 ft 473 kts 164°
2026-05-07 18:21 8.51295 -74.98324 32119 ft 472 kts 164°
2026-05-07 18:21 8.48140 -74.97433 32432 ft 471 kts 164°
2026-05-07 18:21 8.44980 -74.96545 32739 ft 470 kts 164°
2026-05-07 18:21 8.41834 -74.95661 32867 ft 469 kts 164°
2026-05-07 18:22 8.38727 -74.94786 32895 ft 459 kts 164°
2026-05-07 18:22 8.32628 -74.93059 32890 ft 453 kts 165°
2026-05-07 18:23 8.26565 -74.91345 32892 ft 453 kts 165°
2026-05-07 18:23 8.20500 -74.89636 32890 ft 453 kts 165°
2026-05-07 18:24 8.14433 -74.87934 32891 ft 452 kts 165°
2026-05-07 18:24 8.08368 -74.86228 32888 ft 452 kts 165°
2026-05-07 18:25 8.02305 -74.84522 32893 ft 452 kts 165°
2026-05-07 18:25 7.96243 -74.82813 32893 ft 452 kts 165°
2026-05-07 18:26 7.90177 -74.81104 32891 ft 452 kts 165°
2026-05-07 18:26 7.84111 -74.79403 32892 ft 452 kts 165°
2026-05-07 18:27 7.78046 -74.77689 32892 ft 453 kts 165°
2026-05-07 18:27 7.71940 -74.75969 32893 ft 453 kts 165°
2026-05-07 18:28 7.65739 -74.75059 32898 ft 451 kts 182°
2026-05-07 18:28 7.59476 -74.75364 32902 ft 451 kts 184°
2026-05-07 18:29 7.53209 -74.75667 32910 ft 451 kts 184°
2026-05-07 18:29 7.46941 -74.75962 32912 ft 451 kts 184°
2026-05-07 18:30 7.40678 -74.76258 32918 ft 450 kts 184°
2026-05-07 18:30 7.34423 -74.76561 32921 ft 450 kts 184°
2026-05-07 18:31 7.28175 -74.76872 32923 ft 449 kts 184°
2026-05-07 18:31 7.21931 -74.77174 32924 ft 449 kts 184°
2026-05-07 18:32 7.15693 -74.77470 32929 ft 449 kts 184°
2026-05-07 18:32 7.09461 -74.77768 32931 ft 448 kts 184°
2026-05-07 18:33 7.03192 -74.78070 32934 ft 447 kts 184°
2026-05-07 18:33 6.97017 -74.78372 32938 ft 447 kts 184°
2026-05-07 18:34 6.90772 -74.78681 32937 ft 446 kts 184°
2026-05-07 18:34 6.84574 -74.78973 32932 ft 446 kts 184°
2026-05-07 18:35 6.78382 -74.79265 32928 ft 445 kts 184°
2026-05-07 18:35 6.72197 -74.79567 32930 ft 445 kts 184°
2026-05-07 18:36 6.66017 -74.79863 32928 ft 444 kts 184°
2026-05-07 18:36 6.59841 -74.80163 32926 ft 444 kts 184°
2026-05-07 18:37 6.54708 -74.80413 32925 ft 444 kts 184°
2026-05-07 18:37 6.48542 -74.80711 32918 ft 444 kts 184°
2026-05-07 18:38 6.42339 -74.81008 32912 ft 443 kts 184°
2026-05-07 18:38 6.36179 -74.81302 32906 ft 443 kts 184°
2026-05-07 18:39 6.30021 -74.81595 32903 ft 443 kts 184°
2026-05-07 18:39 6.23864 -74.81891 32899 ft 443 kts 184°
2026-05-07 18:40 6.17710 -74.82187 32895 ft 443 kts 184°
2026-05-07 18:40 6.11557 -74.82488 32892 ft 443 kts 184°
2026-05-07 18:41 6.05405 -74.82731 32887 ft 443 kts 179°
2026-05-07 18:41 6.02345 -74.82346 32886 ft 445 kts 168°
2026-05-07 18:41 5.99398 -74.81398 32879 ft 446 kts 157°
2026-05-07 18:41 5.96663 -74.79920 32877 ft 448 kts 146°
2026-05-07 18:42 5.94226 -74.77969 32861 ft 449 kts 140°
2026-05-07 18:42 5.91872 -74.75898 32212 ft 452 kts 140°
2026-05-07 18:42 5.89507 -74.73824 31640 ft 450 kts 140°
2026-05-07 18:42 5.87151 -74.71762 31120 ft 447 kts 140°
2026-05-07 18:43 5.84809 -74.69715 30595 ft 445 kts 140°
2026-05-07 18:43 5.82479 -74.67682 30082 ft 443 kts 140°
2026-05-07 18:43 5.80160 -74.65663 29523 ft 440 kts 139°
2026-05-07 18:43 5.77863 -74.63665 29036 ft 434 kts 139°
2026-05-07 18:44 5.75594 -74.61686 28548 ft 430 kts 139°
2026-05-07 18:44 5.73352 -74.59730 28081 ft 425 kts 139°
2026-05-07 18:44 5.71131 -74.57790 27612 ft 420 kts 139°
2026-05-07 18:44 5.68938 -74.55877 27163 ft 415 kts 139°
2026-05-07 18:45 5.66767 -74.53985 26706 ft 411 kts 138°
2026-05-07 18:45 5.64619 -74.52110 26249 ft 407 kts 138°
2026-05-07 18:45 5.62463 -74.50229 25793 ft 404 kts 138°
2026-05-07 18:45 5.60351 -74.48386 25324 ft 401 kts 138°
2026-05-07 18:46 5.58256 -74.46555 24853 ft 398 kts 138°
2026-05-07 18:46 5.56172 -74.44733 24367 ft 396 kts 138°
2026-05-07 18:46 5.54095 -74.42920 23885 ft 395 kts 138°
2026-05-07 18:46 5.52026 -74.41114 23381 ft 394 kts 138°
2026-05-07 18:47 5.49964 -74.39315 22846 ft 392 kts 138°
2026-05-07 18:47 5.47916 -74.37528 22371 ft 389 kts 138°
2026-05-07 18:47 5.45879 -74.35755 21885 ft 386 kts 138°
2026-05-07 18:47 5.43824 -74.34033 21436 ft 384 kts 144°
2026-05-07 18:48 5.41497 -74.32747 20963 ft 383 kts 158°
2026-05-07 18:48 5.38934 -74.32093 20720 ft 377 kts 172°
2026-05-07 18:48 5.36350 -74.31985 20564 ft 367 kts 178°
2026-05-07 18:48 5.33813 -74.31947 20248 ft 363 kts 178°
2026-05-07 18:49 5.31299 -74.31906 19894 ft 360 kts 178°
2026-05-07 18:49 5.28807 -74.31966 19507 ft 358 kts 189°
2026-05-07 18:49 5.26499 -74.32840 19200 ft 356 kts 213°
2026-05-07 18:49 5.24755 -74.34563 18875 ft 353 kts 237°
2026-05-07 18:50 5.23868 -74.36828 18516 ft 351 kts 262°
2026-05-07 18:50 5.23866 -74.39264 18122 ft 349 kts 275°
2026-05-07 18:50 5.24058 -74.41678 17912 ft 346 kts 275°
2026-05-07 18:50 5.24248 -74.44083 17925 ft 346 kts 273°
2026-05-07 18:51 5.24120 -74.46486 17921 ft 346 kts 259°
2026-05-07 18:51 5.23471 -74.48807 17921 ft 345 kts 249°
2026-05-07 18:51 5.22619 -74.51055 17918 ft 345 kts 249°
2026-05-07 18:51 5.21711 -74.53289 17913 ft 345 kts 240°
2026-05-07 18:52 5.20294 -74.55195 17654 ft 340 kts 221°
2026-05-07 18:52 5.18315 -74.56495 17232 ft 335 kts 200°
2026-05-07 18:52 5.16106 -74.57029 16888 ft 329 kts 181°
2026-05-07 18:52 5.13827 -74.56833 16530 ft 324 kts 162°
2026-05-07 18:53 5.11785 -74.55941 16210 ft 319 kts 145°
2026-05-07 18:53 5.09968 -74.54677 15845 ft 318 kts 143°
2026-05-07 18:53 5.08165 -74.53408 15549 ft 316 kts 143°
2026-05-07 18:53 5.06372 -74.52149 15253 ft 313 kts 143°
2026-05-07 18:54 5.04592 -74.50899 14971 ft 312 kts 143°
2026-05-07 18:54 5.02826 -74.49659 14632 ft 307 kts 143°
2026-05-07 18:54 5.01082 -74.48436 14088 ft 305 kts 143°
2026-05-07 18:54 4.99349 -74.47222 13527 ft 303 kts 143°
2026-05-07 18:55 4.97631 -74.46019 12935 ft 299 kts 143°
2026-05-07 18:55 4.95933 -74.44829 12616 ft 295 kts 143°
2026-05-07 18:55 4.94281 -74.43675 12555 ft 283 kts 143°
2026-05-07 18:55 4.92705 -74.42574 12570 ft 270 kts 143°
2026-05-07 18:56 4.91253 -74.41433 12610 ft 263 kts 133°
2026-05-07 18:56 4.90077 -74.40044 12644 ft 261 kts 126°
2026-05-07 18:56 4.89020 -74.38608 12680 ft 249 kts 125°
2026-05-07 18:56 4.88011 -74.37253 12698 ft 238 kts 125°
2026-05-07 18:57 4.87020 -74.35941 12730 ft 236 kts 126°
2026-05-07 18:57 4.86040 -74.34645 12722 ft 228 kts 126°
2026-05-07 18:57 4.85082 -74.33379 12521 ft 225 kts 126°
2026-05-07 18:57 4.84176 -74.32181 12287 ft 207 kts 126°
2026-05-07 18:58 4.83337 -74.31071 12046 ft 194 kts 126°
2026-05-07 18:58 4.82545 -74.30024 11840 ft 180 kts 127°
2026-05-07 18:58 4.81812 -74.29055 11614 ft 169 kts 126°
2026-05-07 18:58 4.81109 -74.28125 11432 ft 166 kts 126°
2026-05-07 18:59 4.80416 -74.27209 11216 ft 164 kts 126°
2026-05-07 18:59 4.79727 -74.26302 11014 ft 163 kts 126°
2026-05-07 18:59 4.79042 -74.25400 10861 ft 162 kts 126°
2026-05-07 18:59 4.78356 -74.24489 10753 ft 162 kts 125°
2026-05-07 19:00 4.77688 -74.23594 10550 ft 162 kts 127°
2026-05-07 19:00 4.76995 -74.22689 10345 ft 162 kts 126°
2026-05-07 19:00 4.76321 -74.21791 10147 ft 161 kts 126°
2026-05-07 19:00 4.75647 -74.20899 9962 ft 160 kts 126°
2026-05-07 19:01 4.74978 -74.20013 9736 ft 159 kts 127°
2026-05-07 19:01 4.74306 -74.19133 9482 ft 158 kts 127°
2026-05-07 19:01 4.73650 -74.18260 9265 ft 156 kts 127°
2026-05-07 19:01 4.72990 -74.17390 9053 ft 157 kts 127°
2026-05-07 19:02 4.72324 -74.16518 8811 ft 158 kts 127°
2026-05-07 19:02 4.71668 -74.15647 8526 ft 156 kts 127°
2026-05-07 19:02 4.71011 -74.14779 8371 ft 153 kts 126°
2026-05-07 19:02 4.70483 -74.14073 8368 ft 88 kts 127°
2026-05-07 19:03 4.70283 -74.13811 8368 ft 25 kts 127°
2026-05-07 19:03 4.70164 -74.13697 8369 ft 23 kts 147°
2026-05-07 19:03 4.70023 -74.13632 8370 ft 22 kts 156°
2026-05-07 19:03 4.69886 -74.13576 8370 ft 20 kts 170°
2026-05-07 19:04 4.69779 -74.13636 8370 ft 14 kts 217°
2026-05-07 19:04 4.69785 -74.13717 8404 ft 12 kts 306°
2026-05-07 19:04 4.69828 -74.13776 8370 ft 9 kts 306°
2026-05-07 19:04 4.69805 -74.13815 8370 ft 7 kts 214°
2026-05-07 19:05 4.69765 -74.13845 8370 ft 0 kts 217°